Location: Excel
(51.3833°N, 110.5667°W)
Time: 21:27:33
(UTC+00:00)

Envisat - Pass Details

Date: 11 December 2021
Orbit: 764 x 766 km, 98.2° (Epoch: 26 January)

Event Time Altitude Azimuth Distance (km) Brightness Sun altitude
Rises 11:11:09 0° 25° (NNE) 3,246 6.6 -37.1°
Reaches altitude 10° 11:14:08 10° 43° (NE) 2,314 6.0 -36.6°
Maximum altitude 11:17:44 19° 89° (E) 1,761 5.5 -36.0°
Drops below altitude 10° 11:21:19 10° 134° (SE) 2,300 5.8 -35.5°
Sets 11:24:15 0° 152° (SSE) 3,221 6.5 -35.0°
